Location: Mohawk View
(42.7837°N, 73.7885°W)
Time: 01:47:42
(UTC+00:00)

Cosmos 1302 Rocket - Pass Details

Date: 17 June 2021
Orbit: 757 x 775 km, 74.0° (Epoch: 02 August)

Event Time Altitude Azimuth Distance (km) Brightness Sun altitude
Exits shadow 02:43:01 29° 160° (SSE) 1,391 4.8 -17.1°
Maximum altitude 02:45:19 48° 104° (ESE) 1,004 4.3 -17.3°
Drops below altitude 10° 02:50:21 10° 31° (NNE) 2,313 6.8 -17.8°
Sets 02:52:47 0° 26° (NNE) 3,241 7.7 -18.0°
